Dewpoint
17 12 14 18 20 21 21 23 25 26 26 25 24 25 26 27 28 28 28 29 29 31 35 35 36 39 42 44 44 47 54 62 64 65 64 64 64 63 63 65 65 65 65 65
16 14 17 16 18 19 19 19 20 24 24 22 24 24 24 27 28 28 29 30 31 31 31 33 36 39 41 41 45 45 53 63 64 64 65 63 62 61 63 64 65 65 64 64
15 17 18 14 15 14 17 19 20 21 24 21 21 19 20 20 22 24 29 30 31 32 30 33 33 38 41 45 50 54 58 64 65 64 62 61 60 60 60 61 62 63 64 63
14 14 12 12 15 12 11 20 20 22 20 18 18 15 16 16 16 18 20 22 24 28 31 35 35 36 41 45 59 62 64 65 65 64 61 60 58 58 58 59 60 62 63 63
14 13 12 10 11 15 17 15 17 21 20 19 19 17 12 16 14 14 15 17 19 20 25 28 29 36 46 59 62 64 65 65 64 63 61 59 58 58 58 59 59 60 61 62
19 15 13 11 11 10 12 13 17 16 19 17 17 17 14 13 13 15 23 26 27 27 30 31 37 43 57 62 64 65 64 63 63 61 60 59 58 58 58 58 59 59 59 61
25 16 19 14 12 16 11 10 14 15 15 14 17 17 15 20 23 23 22 24 25 25 28 37 53 57 60 62 63 64 63 61 61 60 59 59 58 58 58 58 58 58 59 59
26 21 25 27 21 20 12 10 12 11 15 12 16 16 16 20 19 19 19 20 23 27 37 44 56 59 62 62 62 62 62 59 59 59 58 59 59 59 59 58 59 59 59 59
26 20 23 23 21 20 19 9 10 7 12 11 16 18 19 18 18 20 19 20 23 37 54 56 59 61 62 61 60 61 60 59 59 59 59 59 59 59 59 58 59 58 58 59
26 21 24 23 20 20 18 21 8 10 8 11 15 17 17 18 12 20 23 23 32 53 56 59 60 61 61 61 60 60 59 59 59 59 60 60 59 59 58 58 58 58 58 59
28 26 24 24 20 14 17 20 19 11 11 13 13 17 23 21 21 22 23 24 45 54 56 59 60 60 60 60 60 58 58 59 59 59 59 59 59 59 59 59 58 58 58 59
32 29 26 23 22 22 22 20 22 17 13 13 16 14 18 19 19 21 25 37 53 55 57 59 59 60 60 59 59 58 58 59 59 59 59 59 59 58 58 58 58 58 58 59
34 27 23 19 26 28 26 25 24 26 23 20 12 13 17 20 21 38 49 51 53 56 57 58 59 60 60 59 58 58 57 58 59 59 58 58 58 58 58 58 58 57 58 57
36 32 26 22 22 26 26 27 33 31 26 22 19 18 17 18 30 27 41 51 52 56 57 58 58 59 59 59 58 58 57 58 59 59 59 58 58 58 58 58 57 56 57 57
34 29 29 29 30 31 31 30 29 30 30 27 26 27 21 29 29 30 36 51 53 55 56 57 57 58 58 58 58 57 56 57 59 60 59 58 58 58 58 57 57 58 58 58
34 28 31 29 31 30 31 31 31 30 30 29 28 26 28 30 35 45 45 51 53 54 55 56 57 57 57 57 57 56 55 56 59 60 60 60 60 59 58 57 58 58 59 60
33 30 27 23 23 31 27 30 29 30 29 27 27 30 36 41 47 51 49 50 52 53 54 55 56 56 57 57 56 55 55 56 58 60 60 60 59 58 58 57 58 59 59 60
28 29 29 27 29 20 30 39 33 31 31 32 35 42 46 45 49 51 53 50 52 53 54 55 55 56 56 56 55 54 55 58 59 60 59 59 59 58 58 57 57 56 58 59
31 29 28 26 27 31 32 37 37 35 37 44 44 45 47 49 47 48 54 54 53 52 53 54 55 55 55 53 53 54 57 58 59 59 58 59 58 57 58 57 56 56 57 56
32 30 29 29 24 24 36 37 38 39 33 44 44 45 46 47 42 46 52 54 55 53 53 53 55 55 53 52 52 55 56 57 58 59 58 58 57 58 58 57 57 57 57 57
34 33 28 28 27 33 37 37 37 33 36 44 46 46 46 46 47 51 54 55 56 54 52 53 54 53 52 51 52 54 56 56 57 58 58 58 57 58 58 57 57 58 58 58
31 30 32 32 29 27 38 35 38 42 45 47 45 46 47 49 51 54 55 55 55 53 52 53 53 52 50 51 51 53 55 55 56 56 56 56 57 58 58 58 58 58 58 57
31 34 31 32 32 36 37 37 44 47 46 46 46 46 47 48 48 50 52 52 54 54 53 52 51 49 49 49 49 50 52 51 55 55 56 58 58 59 59 58 57 56 56 57
36 39 36 36 38 39 42 43 44 46 46 48 48 46 47 47 48 48 52 52 53 56 55 53 50 48 49 49 48 49 49 51 55 55 57 59 59 58 59 59 58 57 56 57
36 37 36 36 38 40 41 44 46 45 47 47 46 46 47 46 47 48 49 51 52 53 56 54 50 50 50 49 48 48 49 55 55 56 58 59 59 59 58 57 56 58 57 57
36 37 36 35 38 40 41 45 47 46 47 48 44 42 43 45 46 47 49 52 53 54 51 54 53 52 52 50 49 49 51 56 56 56 58 59 59 59 58 55 53 41 46 49
Lifted_Index
10 9 8 8 8 8 7 6 6 6 6 5 5 6 6 6 6 6 6 7 6 6 5 5 4 4 4 4 4 3 2 -0 -2 -4 -5 -6 -6 -6 -6 -6 -6 -6 -6 -6
10 10 9 9 9 8 8 7 6 6 6 5 5 6 6 6 7 7 7 7 6 6 5 5 4 4 4 4 3 3 2 -1 -3 -4 -5 -5 -6 -6 -6 -6 -6 -6 -6 -6
11 10 10 10 10 9 9 8 7 7 6 6 5 5 5 6 7 7 7 7 6 6 5 5 4 4 4 4 3 2 0 -2 -3 -4 -5 -5 -6 -6 -6 -6 -6 -6 -5 -5
10 10 10 10 10 10 9 9 9 8 7 6 5 4 4 5 5 6 6 6 6 6 5 5 5 5 5 4 2 -0 -2 -3 -4 -5 -5 -5 -6 -6 -6 -5 -5 -5 -4 -3
8 8 9 10 10 10 10 10 9 9 8 6 5 4 3 3 4 5 5 6 6 5 5 6 6 6 4 2 -1 -3 -4 -5 -5 -5 -5 -6 -6 -6 -5 -5 -4 -3 -2 -2
5 6 7 8 9 9 9 9 8 8 6 5 5 4 3 3 3 4 5 5 5 6 6 6 6 5 3 -0 -3 -5 -5 -5 -6 -6 -6 -6 -6 -5 -5 -4 -3 -2 -2 -2
2 3 4 5 7 8 8 8 6 4 3 3 4 4 3 4 5 5 5 5 5 6 6 6 4 3 0 -2 -4 -5 -5 -6 -6 -6 -6 -6 -5 -4 -3 -2 -2 -1 -1 -2
0 1 2 3 4 5 7 7 5 3 2 3 4 4 4 5 6 5 5 5 6 6 5 4 3 1 -1 -3 -4 -5 -5 -6 -6 -6 -5 -4 -3 -2 -2 -1 -1 -1 -1 -1
0 0 0 1 2 3 5 6 6 5 4 3 3 3 4 5 5 4 4 5 5 5 4 2 1 -0 -2 -3 -4 -5 -5 -5 -5 -4 -3 -2 -1 -1 -1 -1 -1 -1 -0 -0
1 1 0 1 1 3 4 4 5 6 4 2 1 2 4 5 4 3 3 4 4 3 2 0 -0 -1 -2 -3 -4 -4 -4 -4 -3 -2 -1 -1 -1 -0 -0 -0 -0 0 0 1
1 1 1 1 1 2 3 3 4 5 5 3 1 2 5 6 5 3 3 3 3 2 1 -0 -1 -2 -2 -3 -3 -3 -3 -2 -1 -1 -0 -0 -0 -0 0 0 0 1 1 1
1 1 1 1 1 1 2 2 3 5 6 5 3 3 6 7 6 4 2 2 2 1 -0 -1 -1 -2 -2 -3 -3 -2 -1 -1 -0 0 0 0 0 0 0 0 1 1 1 1
1 1 1 1 1 1 1 1 2 4 6 6 5 4 5 6 5 4 2 1 0 -0 -1 -1 -2 -2 -2 -2 -2 -1 -0 -0 0 0 0 0 0 0 1 1 1 1 1 1
1 1 1 1 1 1 1 1 2 4 6 7 6 5 5 4 5 4 2 0 -1 -1 -1 -2 -2 -2 -2 -2 -1 -1 0 0 0 0 0 0 0 1 1 1 1 2 2 2
1 1 1 1 1 1 1 1 1 3 6 8 8 7 5 4 4 4 2 0 -1 -1 -2 -2 -2 -2 -2 -1 -1 -0 0 1 0 0 0 0 0 1 1 1 1 1 1 2
1 1 1 1 1 1 1 1 1 3 6 8 9 8 6 5 3 2 1 -0 -1 -2 -3 -2 -2 -2 -2 -1 -1 0 1 1 1 0 0 0 0 1 1 1 1 1 1 1
2 2 2 1 1 1 0 -0 1 3 5 7 8 6 5 3 2 0 -0 -1 -2 -3 -3 -3 -2 -2 -2 -1 -0 0 1 1 1 0 0 0 1 1 1 1 1 1 1 0
2 2 2 1 1 0 -0 -1 0 1 3 5 5 4 2 2 1 -1 -1 -2 -2 -3 -3 -3 -3 -2 -2 -1 -0 0 1 1 0 0 0 0 1 1 1 1 1 1 0 0
2 2 2 1 1 0 -0 -1 -0 1 1 2 3 2 1 0 -0 -1 -1 -2 -2 -2 -3 -3 -3 -2 -2 -1 -0 0 1 1 0 0 0 0 1 1 1 1 1 1 0 0
1 1 2 1 1 0 -0 -0 0 1 0 1 1 1 0 -0 -0 -0 -1 -1 -2 -2 -3 -3 -3 -3 -2 -1 -0 1 1 1 0 -0 0 0 1 1 1 1 1 1 1 0
1 1 1 1 1 1 1 0 0 0 0 0 0 -0 -0 -0 0 -0 -0 -1 -1 -2 -3 -3 -3 -3 -2 -1 0 1 1 1 0 -0 0 0 1 1 1 1 1 1 1 0
1 1 1 1 1 1 2 1 1 0 0 0 -0 -1 -1 -0 -0 -0 -0 -1 -2 -2 -3 -3 -3 -2 -2 -1 0 1 1 1 0 -0 -0 0 0 1 1 0 0 0 0 0
2 2 2 2 2 2 2 2 2 1 1 1 0 -1 -1 -1 -0 -0 -1 -1 -2 -3 -3 -3 -3 -2 -2 -1 0 1 1 1 -0 -1 -1 -0 -0 0 0 -0 -0 0 0 0
3 2 2 2 2 2 3 2 2 2 2 2 1 -0 -1 -1 -1 -1 -1 -1 -3 -3 -3 -3 -3 -2 -2 -1 -0 1 2 1 0 -1 -1 -1 -0 -0 -0 -1 -0 -0 0 1
3 3 2 2 3 3 3 3 2 2 3 2 1 1 0 -1 -1 -0 -1 -1 -2 -3 -3 -3 -3 -2 -2 -1 -0 1 2 1 0 -0 -1 -1 -1 -1 -1 -1 -1 -0 0 1
3 3 3 3 3 3 3 3 3 3 3 2 2 1 1 -0 -1 -0 -0 -1 -2 -3 -3 -3 -3 -3 -2 -2 -0 1 2 1 0 -0 -1 -1 -1 -1 -1 -1 -1 -0 0 1